START_TIME,STEP,MOV.,AL01,t_acc.,AL02,t_acc.,E37,t_acc.,H21,t_acc.
1979-07-01 06:00:35.280 ,1,1,0.,24.0,0.,24.0,0.,24.0,0.,24.0
1979-07-01 06:00:59.280 ,2,1,0.,24.0,0.,24.0,0.,24.0,0.,24.0
1979-07-01 06:01:23.280 ,6,1,0.,24.0,0.,24.0,0.,24.0,0.,24.0
1979-07-01 06:01:47.280 ,5,1,6.,24.0,0.,24.0,0.,24.0,0.,24.0
1979-07-01 06:02:11.280 ,1,1,0.,24.0,0.,24.0,0.,24.0,0.,24.0
1979-07-01 06:02:35.280 ,2,1,1.,24.0,0.,24.0,0.,24.0,0.,24.0
1979-07-01 06:02:59.280 ,6,1,1.,24.0,0.,24.0,0.,24.0,0.,24.0
1979-07-01 06:03:23.280 ,5,1,23.,24.0,0.,24.0,0.,24.0,0.,24.0
1979-07-01 06:03:47.280 ,1,1,0.,24.0,0.,24.0,0.,24.0,0.,24.0
1979-07-01 06:04:11.280 ,2,1,0.,24.0,0.,24.0,0.,24.0,0.,24.0
1979-07-01 06:04:35.280 ,6,1,0.,24.0,0.,24.0,0.,24.0,0.,24.0
1979-07-01 06:04:59.280 ,5,1,12.,24.0,0.,24.0,2.,24.0,0.,24.0
1979-07-01 06:05:23.280 ,1,1,1.,24.0,0.,24.0,0.,24.0,0.,24.0
1979-07-01 06:05:47.280 ,0,0,1.,24.0,0.,24.0,0.,24.0,0.,24.0
1979-07-01 06:06:11.280 ,0,0,0.,24.0,0.,24.0,0.,24.0,0.,24.0
1979-07-01 06:06:35.280 ,5,1,13.,24.0,0.,24.0,1.,24.0,0.,24.0
1979-07-01 06:06:59.280 ,5,0,0.,24.0,0.,24.0,0.,24.0,0.,24.0
1979-07-01 06:07:23.280 ,4,1,0.,24.0,1.,24.0,0.,24.0,0.,24.0
1979-07-01 06:07:47.280 ,4,0,1.,24.0,0.,24.0,0.,24.0,0.,24.0
1979-07-01 06:08:11.280 ,3,1,0.,24.0,1.,24.0,1.,24.0,0.,24.0
1979-07-01 06:08:35.280 ,3,0,0.,24.0,0.,24.0,0.,24.0,0.,24.0
1979-07-01 06:08:59.280 ,2,1,0.,24.0,0.,24.0,0.,24.0,0.,24.0
1979-07-01 06:09:23.280 ,2,0,1.,24.0,0.,24.0,0.,24.0,0.,24.0
1979-07-01 06:09:47.280 ,1,1,0.,24.0,0.,24.0,0.,24.0,0.,24.0
1979-07-01 06:10:11.280 ,1,0,0.,24.0,0.,24.0,0.,24.0,0.,24.0
1979-07-01 06:10:35.280 ,0,1,1.,24.0,0.,24.0,0.,24.0,0.,24.0
1979-07-01 06:10:59.280 ,0,0,1.,24.0,0.,24.0,1.,24.0,0.,24.0
1979-07-01 06:11:23.280 ,0,1,0.,24.0,0.,24.0,1.,24.0,0.,24.0
1979-07-01 06:11:47.280 ,0,0,0.,24.0,0.,24.0,1.,24.0,0.,24.0
1979-07-01 06:12:11.280 ,1,1,0.,24.0,0.,24.0,0.,24.0,0.,24.0
1979-07-01 06:12:35.280 ,1,0,0.,24.0,0.,24.0,0.,24.0,0.,24.0
1979-07-01 06:12:59.280 ,2,1,0.,24.0,0.,24.0,0.,24.0,0.,24.0
1979-07-01 06:13:23.280 ,2,0,0.,24.0,0.,24.0,0.,24.0,0.,24.0
1979-07-01 06:13:47.280 ,3,1,0.,24.0,1.,24.0,0.,24.0,0.,24.0
1979-07-01 06:14:11.280 ,3,0,0.,24.0,0.,24.0,0.,24.0,0.,24.0
1979-07-01 06:14:35.280 ,4,1,1.,24.0,0.,24.0,0.,24.0,0.,24.0
1979-07-01 06:14:59.280 ,4,0,0.,24.0,0.,24.0,0.,24.0,0.,24.0
1979-07-01 06:15:23.280 ,5,1,0.,24.0,1.,24.0,0.,24.0,0.,24.0
1979-07-01 06:15:47.280 ,5,0,0.,24.0,0.,24.0,0.,24.0,0.,24.0
1979-07-01 06:16:11.280 ,6,1,0.,24.0,0.,24.0,1.,24.0,0.,24.0
1979-07-01 06:16:35.280 ,6,0,0.,24.0,1.,24.0,0.,24.0,0.,24.0
1979-07-01 06:16:59.280 ,7,1,8.,24.0,0.,24.0,1.,24.0,0.,24.0
1979-07-01 06:17:23.280 ,7,0,27.,24.0,0.,24.0,0.,24.0,0.,24.0
1979-07-01 06:17:47.280 ,7,1,36.,24.0,0.,24.0,0.,24.0,0.,24.0
1979-07-01 06:18:11.280 ,7,0,27.,24.0,0.,24.0,0.,24.0,0.,24.0
1979-07-01 06:18:35.280 ,6,1,22.,24.0,0.,24.0,0.,24.0,0.,24.0
1979-07-01 06:18:59.280 ,6,0,0.,24.0,0.,24.0,0.,24.0,0.,24.0
1979-07-01 06:19:23.280 ,5,1,1.,24.0,0.,24.0,0.,24.0,0.,24.0
1979-07-01 06:19:47.280 ,5,0,0.,24.0,0.,24.0,1.,24.0,0.,24.0
1979-07-01 06:20:11.280 ,4,1,0.,24.0,0.,24.0,1.,24.0,0.,24.0
1979-07-01 06:20:35.280 ,4,0,0.,24.0,0.,24.0,0.,24.0,0.,24.0
1979-07-01 06:20:59.280 ,3,1,0.,24.0,0.,24.0,0.,24.0,0.,24.0
1979-07-01 06:21:23.280 ,3,0,0.,24.0,0.,24.0,0.,24.0,0.,24.0
1979-07-01 06:21:47.280 ,2,1,0.,24.0,0.,24.0,1.,24.0,0.,24.0
1979-07-01 06:22:11.280 ,2,0,0.,24.0,0.,24.0,1.,24.0,0.,24.0
1979-07-01 06:22:35.280 ,1,1,0.,24.0,0.,24.0,0.,24.0,0.,24.0
1979-07-01 06:22:59.280 ,1,0,0.,24.0,0.,24.0,0.,24.0,0.,24.0
1979-07-01 06:23:23.280 ,0,1,0.,24.0,0.,24.0,0.,24.0,0.,24.0
1979-07-01 06:23:47.280 ,0,0,0.,24.0,0.,24.0,0.,24.0,0.,24.0
1979-07-01 06:24:11.280 ,0,1,0.,24.0,0.,24.0,1.,24.0,0.,24.0
1979-07-01 06:24:35.280 ,0,0,0.,24.0,0.,24.0,0.,24.0,0.,24.0
1979-07-01 06:24:59.280 ,1,1,0.,24.0,0.,24.0,0.,24.0,0.,24.0
1979-07-01 06:25:23.280 ,1,0,0.,24.0,0.,24.0,0.,24.0,0.,24.0
1979-07-01 06:25:47.280 ,2,1,0.,24.0,0.,24.0,1.,24.0,0.,24.0
1979-07-01 06:26:11.280 ,2,0,0.,24.0,0.,24.0,1.,24.0,0.,24.0
1979-07-01 06:26:35.280 ,3,1,0.,24.0,0.,24.0,1.,24.0,0.,24.0
1979-07-01 06:26:59.280 ,3,0,0.,24.0,0.,24.0,1.,24.0,0.,24.0
1979-07-01 06:27:23.280 ,4,1,0.,24.0,0.,24.0,0.,24.0,0.,24.0
1979-07-01 06:27:47.280 ,4,0,0.,24.0,0.,24.0,1.,24.0,0.,24.0
1979-07-01 06:28:11.280 ,5,1,0.,24.0,0.,24.0,0.,24.0,0.,24.0
1979-07-01 06:28:35.280 ,5,0,0.,24.0,0.,24.0,0.,24.0,0.,24.0
1979-07-01 06:28:59.280 ,6,1,0.,24.0,0.,24.0,0.,24.0,0.,24.0
1979-07-01 06:29:23.280 ,6,0,0.,24.0,1.,24.0,0.,24.0,0.,24.0
1979-07-01 06:29:47.280 ,7,1,6.,24.0,0.,24.0,0.,24.0,0.,24.0
1979-07-01 06:30:11.280 ,7,0,27.,24.0,0.,24.0,1.,24.0,0.,24.0
1979-07-01 06:30:35.280 ,7,1,30.,24.0,0.,24.0,0.,24.0,0.,24.0
1979-07-01 06:30:59.280 ,7,0,31.,24.0,0.,24.0,0.,24.0,0.,24.0
1979-07-01 06:31:23.280 ,6,1,23.,24.0,0.,24.0,0.,24.0,0.,24.0
1979-07-01 06:31:47.280 ,6,0,0.,24.0,0.,24.0,0.,24.0,0.,24.0
1979-07-01 06:32:11.280 ,5,1,0.,24.0,0.,24.0,0.,24.0,0.,24.0
1979-07-01 06:32:35.280 ,5,0,0.,24.0,0.,24.0,0.,24.0,0.,24.0
1979-07-01 06:32:59.280 ,4,1,0.,24.0,0.,24.0,0.,24.0,0.,24.0
1979-07-01 06:33:23.280 ,4,0,0.,24.0,0.,24.0,0.,24.0,0.,24.0
1979-07-01 06:33:47.280 ,3,1,0.,24.0,0.,24.0,1.,24.0,0.,24.0
1979-07-01 06:34:11.280 ,3,0,1.,24.0,0.,24.0,0.,24.0,0.,24.0
1979-07-01 06:34:35.280 ,2,1,0.,24.0,0.,24.0,0.,24.0,0.,24.0
1979-07-01 06:34:59.280 ,2,0,0.,24.0,1.,24.0,0.,24.0,0.,24.0
1979-07-01 06:35:23.280 ,1,1,0.,24.0,0.,24.0,0.,24.0,0.,24.0
1979-07-01 06:35:47.280 ,1,0,0.,24.0,0.,24.0,1.,24.0,0.,24.0
1979-07-01 06:36:11.280 ,0,1,0.,24.0,0.,24.0,1.,24.0,0.,24.0
1979-07-01 06:36:35.280 ,0,0,0.,24.0,0.,24.0,0.,24.0,0.,24.0
1979-07-01 06:36:59.280 ,0,1,0.,24.0,0.,24.0,0.,24.0,0.,24.0
1979-07-01 06:37:23.280 ,0,0,0.,24.0,0.,24.0,0.,24.0,0.,24.0
1979-07-01 06:37:47.280 ,1,1,0.,24.0,0.,24.0,0.,24.0,0.,24.0
1979-07-01 06:38:11.280 ,1,0,0.,24.0,0.,24.0,0.,24.0,0.,24.0
1979-07-01 06:38:35.280 ,2,1,0.,24.0,0.,24.0,1.,24.0,0.,24.0
1979-07-01 06:38:59.280 ,2,0,0.,24.0,0.,24.0,0.,24.0,0.,24.0
1979-07-01 06:39:23.280 ,3,1,0.,24.0,0.,24.0,1.,24.0,0.,24.0
1979-07-01 06:39:47.280 ,3,0,1.,24.0,0.,24.0,0.,24.0,0.,24.0
1979-07-01 06:40:11.280 ,4,1,0.,24.0,0.,24.0,0.,24.0,0.,24.0
1979-07-01 06:40:35.280 ,4,0,0.,24.0,0.,24.0,0.,24.0,0.,24.0
1979-07-01 06:40:59.280 ,5,1,0.,24.0,0.,24.0,0.,24.0,0.,24.0
1979-07-01 06:41:23.280 ,5,0,0.,24.0,0.,24.0,0.,24.0,0.,24.0
1979-07-01 06:41:47.280 ,6,1,2.,24.0,0.,24.0,1.,24.0,0.,24.0
1979-07-01 06:42:11.280 ,6,0,0.,24.0,0.,24.0,0.,24.0,0.,24.0
1979-07-01 06:42:35.280 ,7,0,7.,24.0,0.,24.0,1.,24.0,0.,24.0
1979-07-01 06:42:59.280 ,7,0,41.,24.0,0.,24.0,2.,24.0,0.,24.0
1979-07-01 06:43:23.280 ,5,1,6.,24.0,0.,24.0,0.,24.0,0.,24.0
1979-07-01 06:43:47.280 ,1,1,0.,24.0,0.,24.0,1.,24.0,0.,24.0
1979-07-01 06:44:11.280 ,2,1,0.,24.0,0.,24.0,0.,24.0,0.,24.0
1979-07-01 06:44:35.280 ,6,1,0.,24.0,0.,24.0,1.,24.0,0.,24.0
1979-07-01 06:44:59.280 ,5,1,18.,24.0,0.,24.0,0.,24.0,0.,24.0
1979-07-01 06:45:23.280 ,1,1,0.,24.0,0.,24.0,0.,24.0,0.,24.0
1979-07-01 06:45:47.280 ,2,1,0.,24.0,0.,24.0,0.,24.0,0.,24.0
1979-07-01 06:46:11.280 ,6,1,0.,24.0,1.,24.0,0.,24.0,0.,24.0
1979-07-01 06:46:35.280 ,5,1,16.,24.0,0.,24.0,1.,24.0,0.,24.0
1979-07-01 06:46:59.280 ,1,1,0.,24.0,0.,24.0,0.,24.0,0.,24.0
1979-07-01 06:47:23.280 ,2,1,1.,24.0,0.,24.0,1.,24.0,0.,24.0
1979-07-01 06:47:47.280 ,6,1,0.,24.0,0.,24.0,0.,24.0,0.,24.0
1979-07-01 06:48:11.280 ,5,1,17.,24.0,0.,24.0,1.,24.0,0.,24.0
1979-07-01 06:48:35.280 ,1,1,0.,24.0,0.,24.0,0.,24.0,0.,24.0
1979-07-01 06:48:59.280 ,2,1,0.,24.0,0.,24.0,0.,24.0,0.,24.0
1979-07-01 06:49:23.280 ,6,1,0.,24.0,0.,24.0,0.,24.0,0.,24.0
1979-07-01 06:49:47.280 ,5,1,14.,24.0,0.,24.0,1.,24.0,0.,24.0
1979-07-01 06:50:11.280 ,1,1,1.,24.0,0.,24.0,0.,24.0,0.,24.0
1979-07-01 06:50:35.280 ,2,1,0.,24.0,0.,24.0,1.,24.0,0.,24.0
1979-07-01 06:50:59.280 ,6,1,0.,24.0,1.,24.0,0.,24.0,0.,24.0
1979-07-01 06:51:23.280 ,5,1,14.,24.0,0.,24.0,0.,24.0,0.,24.0
1979-07-01 06:51:47.280 ,1,1,0.,24.0,0.,24.0,0.,24.0,0.,24.0
1979-07-01 06:52:11.280 ,2,1,0.,24.0,0.,24.0,0.,24.0,0.,24.0
1979-07-01 06:52:35.280 ,6,1,0.,24.0,0.,24.0,0.,24.0,0.,24.0
1979-07-01 06:52:59.280 ,5,1,24.,24.0,1.,24.0,0.,24.0,0.,24.0
1979-07-01 06:53:23.280 ,1,1,1.,24.0,0.,24.0,1.,24.0,0.,24.0
1979-07-01 06:53:47.280 ,0,0,0.,24.0,0.,24.0,0.,24.0,0.,24.0
1979-07-01 06:54:11.280 ,0,0,0.,24.0,0.,24.0,0.,24.0,0.,24.0
1979-07-01 06:54:35.280 ,5,1,17.,24.0,0.,24.0,0.,24.0,0.,24.0
1979-07-01 06:54:59.280 ,5,0,1.,24.0,0.,24.0,0.,24.0,0.,24.0
1979-07-01 06:55:23.280 ,4,1,0.,24.0,0.,24.0,0.,24.0,0.,24.0
1979-07-01 06:55:47.280 ,4,0,0.,24.0,0.,24.0,0.,24.0,0.,24.0
1979-07-01 06:56:11.280 ,3,1,0.,24.0,0.,24.0,0.,24.0,0.,24.0
1979-07-01 06:56:35.280 ,3,0,0.,24.0,0.,24.0,0.,24.0,0.,24.0
1979-07-01 06:56:59.280 ,2,1,0.,24.0,0.,24.0,1.,24.0,0.,24.0
1979-07-01 06:57:23.280 ,2,0,0.,24.0,0.,24.0,0.,24.0,0.,24.0
1979-07-01 06:57:47.280 ,1,1,0.,24.0,1.,24.0,0.,24.0,0.,24.0
1979-07-01 06:58:11.280 ,1,0,0.,24.0,0.,24.0,0.,24.0,0.,24.0
1979-07-01 06:58:35.280 ,0,1,0.,24.0,0.,24.0,1.,24.0,0.,24.0
1979-07-01 06:58:59.280 ,0,0,0.,24.0,1.,24.0,0.,24.0,0.,24.0
1979-07-01 06:59:23.280 ,0,1,0.,24.0,0.,24.0,0.,24.0,0.,24.0
1979-07-01 06:59:47.280 ,0,0,0.,24.0,0.,24.0,0.,24.0,0.,24.0
1979-07-01 07:00:11.280 ,1,1,0.,24.0,0.,24.0,1.,24.0,0.,24.0
1979-07-01 07:00:35.280 ,1,0,0.,24.0,0.,24.0,0.,24.0,0.,24.0
1979-07-01 07:00:59.280 ,2,1,0.,24.0,0.,24.0,0.,24.0,0.,24.0
1979-07-01 07:01:23.280 ,2,0,0.,24.0,0.,24.0,1.,24.0,0.,24.0
1979-07-01 07:01:47.280 ,3,1,0.,24.0,0.,24.0,0.,24.0,0.,24.0
1979-07-01 07:02:11.280 ,3,0,0.,24.0,0.,24.0,0.,24.0,0.,24.0
1979-07-01 07:02:35.280 ,4,1,0.,24.0,0.,24.0,0.,24.0,0.,24.0
1979-07-01 07:02:59.280 ,4,0,0.,24.0,0.,24.0,1.,24.0,0.,24.0
1979-07-01 07:03:23.280 ,5,1,0.,24.0,0.,24.0,0.,24.0,0.,24.0
1979-07-01 07:03:47.280 ,5,0,0.,24.0,0.,24.0,0.,24.0,0.,24.0
1979-07-01 07:04:11.280 ,6,1,0.,24.0,0.,24.0,0.,24.0,0.,24.0
1979-07-01 07:04:35.280 ,6,0,0.,24.0,0.,24.0,1.,24.0,0.,24.0
1979-07-01 07:04:59.280 ,7,1,10.,24.0,0.,24.0,0.,24.0,0.,24.0
1979-07-01 07:05:23.280 ,7,0,25.,24.0,0.,24.0,0.,24.0,0.,24.0
1979-07-01 07:05:47.280 ,7,1,31.,24.0,0.,24.0,0.,24.0,0.,24.0
1979-07-01 07:06:11.280 ,7,0,29.,24.0,0.,24.0,0.,24.0,0.,24.0
1979-07-01 07:06:35.280 ,6,1,24.,24.0,0.,24.0,0.,24.0,0.,24.0
1979-07-01 07:06:59.280 ,6,0,1.,24.0,0.,24.0,1.,24.0,0.,24.0
1979-07-01 07:07:23.280 ,5,1,1.,24.0,0.,24.0,0.,24.0,0.,24.0
1979-07-01 07:07:47.280 ,5,0,0.,24.0,0.,24.0,0.,24.0,0.,24.0
1979-07-01 07:08:11.280 ,4,1,0.,24.0,0.,24.0,0.,24.0,0.,24.0
1979-07-01 07:08:35.280 ,4,0,0.,24.0,0.,24.0,1.,24.0,0.,24.0
1979-07-01 07:08:59.280 ,3,1,0.,24.0,0.,24.0,0.,24.0,0.,24.0
1979-07-01 07:09:23.280 ,3,0,1.,24.0,0.,24.0,0.,24.0,0.,24.0
1979-07-01 07:09:47.280 ,2,1,0.,24.0,0.,24.0,0.,24.0,0.,24.0
1979-07-01 07:10:11.280 ,2,0,1.,24.0,0.,24.0,1.,24.0,0.,24.0
1979-07-01 07:10:35.280 ,1,1,0.,24.0,0.,24.0,0.,24.0,0.,24.0
1979-07-01 07:10:59.280 ,1,0,0.,24.0,0.,24.0,0.,24.0,0.,24.0
1979-07-01 07:11:23.280 ,0,1,0.,24.0,0.,24.0,1.,24.0,0.,24.0
1979-07-01 07:11:47.280 ,0,0,0.,24.0,0.,24.0,0.,24.0,0.,24.0
1979-07-01 07:12:11.280 ,0,1,0.,24.0,0.,24.0,0.,24.0,0.,24.0
1979-07-01 07:12:35.280 ,0,0,0.,24.0,0.,24.0,1.,24.0,0.,24.0
1979-07-01 07:12:59.280 ,1,1,0.,24.0,0.,24.0,0.,24.0,0.,24.0
1979-07-01 07:13:23.280 ,1,0,0.,24.0,0.,24.0,1.,24.0,0.,24.0
1979-07-01 07:13:47.280 ,2,1,0.,24.0,0.,24.0,0.,24.0,0.,24.0
1979-07-01 07:14:11.280 ,2,0,0.,24.0,0.,24.0,0.,24.0,0.,24.0
1979-07-01 07:14:35.280 ,3,1,1.,24.0,0.,24.0,0.,24.0,0.,24.0
1979-07-01 07:14:59.280 ,3,0,0.,24.0,0.,24.0,0.,24.0,0.,24.0
1979-07-01 07:15:23.280 ,4,1,0.,24.0,0.,24.0,0.,24.0,0.,24.0
1979-07-01 07:15:47.280 ,4,0,0.,24.0,0.,24.0,0.,24.0,0.,24.0
1979-07-01 07:16:11.280 ,5,1,0.,24.0,0.,24.0,0.,24.0,0.,24.0
1979-07-01 07:16:35.280 ,5,0,0.,24.0,0.,24.0,0.,24.0,0.,24.0
1979-07-01 07:16:59.280 ,6,1,0.,24.0,0.,24.0,0.,24.0,0.,24.0
1979-07-01 07:17:23.280 ,6,0,0.,24.0,0.,24.0,0.,24.0,0.,24.0
1979-07-01 07:17:47.280 ,7,1,7.,24.0,0.,24.0,0.,24.0,0.,24.0
1979-07-01 07:18:11.280 ,7,0,41.,24.0,0.,24.0,1.,24.0,0.,24.0
1979-07-01 07:18:35.280 ,7,1,28.,24.0,1.,24.0,1.,24.0,0.,24.0
1979-07-01 07:18:59.280 ,7,0,34.,24.0,0.,24.0,0.,24.0,0.,24.0
1979-07-01 07:19:23.280 ,6,1,27.,24.0,0.,24.0,0.,24.0,0.,24.0
1979-07-01 07:19:47.280 ,6,0,0.,24.0,0.,24.0,1.,24.0,0.,24.0
1979-07-01 07:20:11.280 ,5,1,0.,24.0,1.,24.0,1.,24.0,0.,24.0
1979-07-01 07:20:35.280 ,5,0,0.,24.0,0.,24.0,1.,24.0,0.,24.0
1979-07-01 07:20:59.280 ,4,1,0.,24.0,0.,24.0,0.,24.0,0.,24.0
1979-07-01 07:21:23.280 ,4,0,0.,24.0,0.,24.0,1.,24.0,0.,24.0
1979-07-01 07:21:47.280 ,3,1,0.,24.0,0.,24.0,0.,24.0,0.,24.0
1979-07-01 07:22:11.280 ,3,0,1.,24.0,0.,24.0,0.,24.0,0.,24.0
1979-07-01 07:22:35.280 ,2,1,0.,24.0,0.,24.0,0.,24.0,0.,24.0
1979-07-01 07:22:59.280 ,2,0,1.,24.0,0.,24.0,0.,24.0,0.,24.0
1979-07-01 07:23:23.280 ,1,1,0.,24.0,0.,24.0,0.,24.0,0.,24.0
1979-07-01 07:23:47.280 ,1,0,0.,24.0,0.,24.0,1.,24.0,0.,24.0
1979-07-01 07:24:11.280 ,0,1,0.,24.0,0.,24.0,0.,24.0,0.,24.0
1979-07-01 07:24:35.280 ,0,0,0.,24.0,1.,24.0,0.,24.0,0.,24.0
1979-07-01 07:24:59.280 ,0,1,0.,24.0,0.,24.0,0.,24.0,0.,24.0
1979-07-01 07:25:23.280 ,0,0,0.,24.0,0.,24.0,0.,24.0,0.,24.0
1979-07-01 07:25:47.280 ,1,1,1.,24.0,0.,24.0,0.,24.0,0.,24.0
1979-07-01 07:26:11.280 ,1,0,0.,24.0,0.,24.0,0.,24.0,0.,24.0
1979-07-01 07:26:35.280 ,2,1,0.,24.0,0.,24.0,0.,24.0,0.,24.0
1979-07-01 07:26:59.280 ,2,0,0.,24.0,0.,24.0,0.,24.0,0.,24.0
1979-07-01 07:27:23.280 ,3,1,0.,24.0,0.,24.0,0.,24.0,0.,24.0
1979-07-01 07:27:47.280 ,3,0,0.,24.0,0.,24.0,0.,24.0,0.,24.0
1979-07-01 07:28:11.280 ,4,1,1.,24.0,0.,24.0,0.,24.0,0.,24.0
1979-07-01 07:28:35.280 ,4,0,0.,24.0,0.,24.0,1.,24.0,0.,24.0
1979-07-01 07:28:59.280 ,5,1,1.,24.0,0.,24.0,0.,24.0,0.,24.0
1979-07-01 07:29:23.280 ,5,0,0.,24.0,0.,24.0,0.,24.0,0.,24.0
1979-07-01 07:29:47.280 ,6,1,0.,24.0,1.,24.0,0.,24.0,0.,24.0
1979-07-01 07:30:11.280 ,6,0,0.,24.0,0.,24.0,0.,24.0,0.,24.0
1979-07-01 07:30:35.280 ,7,0,3.,24.0,0.,24.0,0.,24.0,0.,24.0
1979-07-01 07:30:59.280 ,7,0,29.,24.0,0.,24.0,0.,24.0,0.,24.0
1979-07-01 07:31:23.280 ,0,0,,0,,0,,0,,0
1979-07-01 07:31:47.280 ,0,0,,0,,0,,0,,0
1979-07-01 07:31:47.280 ,0,0,0.,24.0,1.,24.0,1.,24.0,0.,24.0
1979-07-01 07:32:11.280 ,2,1,0.,24.0,0.,24.0,0.,24.0,0.,24.0
1979-07-01 07:32:35.280 ,6,1,0.,24.0,0.,24.0,0.,24.0,0.,24.0
1979-07-01 07:32:59.280 ,5,1,13.,24.0,0.,24.0,0.,24.0,0.,24.0
1979-07-01 07:33:23.280 ,1,1,0.,24.0,0.,24.0,0.,24.0,0.,24.0
1979-07-01 07:33:47.280 ,2,1,0.,24.0,0.,24.0,0.,24.0,0.,24.0
1979-07-01 07:34:11.280 ,6,1,0.,24.0,0.,24.0,1.,24.0,0.,24.0
1979-07-01 07:34:35.280 ,5,1,15.,24.0,0.,24.0,1.,24.0,0.,24.0
1979-07-01 07:34:59.280 ,1,1,0.,24.0,0.,24.0,0.,24.0,0.,24.0
1979-07-01 07:35:23.280 ,2,1,0.,24.0,0.,24.0,0.,24.0,0.,24.0
1979-07-01 07:35:47.280 ,6,1,0.,24.0,1.,24.0,0.,24.0,0.,24.0
1979-07-01 07:36:11.280 ,5,1,9.,24.0,0.,24.0,0.,24.0,0.,24.0
1979-07-01 07:36:35.280 ,1,1,0.,24.0,0.,24.0,0.,24.0,0.,24.0
1979-07-01 07:36:59.280 ,2,1,0.,24.0,1.,24.0,0.,24.0,0.,24.0
1979-07-01 07:37:23.280 ,6,1,1.,24.0,0.,24.0,0.,24.0,0.,24.0
1979-07-01 07:37:47.280 ,5,1,23.,24.0,0.,24.0,0.,24.0,0.,24.0
1979-07-01 07:38:11.280 ,1,1,0.,24.0,0.,24.0,0.,24.0,0.,24.0
1979-07-01 07:38:35.280 ,2,1,0.,24.0,0.,24.0,0.,24.0,0.,24.0
1979-07-01 07:38:59.280 ,6,1,0.,24.0,0.,24.0,1.,24.0,0.,24.0
1979-07-01 07:39:23.280 ,5,1,18.,24.0,0.,24.0,0.,24.0,0.,24.0
1979-07-01 07:39:47.280 ,1,1,0.,24.0,0.,24.0,0.,24.0,0.,24.0
1979-07-01 07:40:11.280 ,2,1,0.,24.0,0.,24.0,1.,24.0,0.,24.0
1979-07-01 07:40:35.280 ,6,1,0.,24.0,0.,24.0,0.,24.0,0.,24.0
1979-07-01 07:40:59.280 ,5,1,20.,24.0,0.,24.0,0.,24.0,0.,24.0
1979-07-01 07:41:23.280 ,1,1,0.,24.0,0.,24.0,1.,24.0,0.,24.0
1979-07-01 07:41:47.280 ,0,0,0.,24.0,0.,24.0,1.,24.0,0.,24.0
1979-07-01 07:42:11.280 ,0,0,0.,24.0,0.,24.0,1.,24.0,0.,24.0
1979-07-01 07:42:35.280 ,5,1,20.,24.0,0.,24.0,0.,24.0,0.,24.0
1979-07-01 07:42:59.280 ,5,0,0.,24.0,0.,24.0,0.,24.0,0.,24.0
1979-07-01 07:43:23.280 ,4,1,0.,24.0,0.,24.0,0.,24.0,0.,24.0
1979-07-01 07:43:47.280 ,4,0,0.,24.0,0.,24.0,0.,24.0,0.,24.0
1979-07-01 07:44:11.280 ,3,1,0.,24.0,0.,24.0,1.,24.0,0.,24.0
1979-07-01 07:44:35.280 ,3,0,0.,24.0,0.,24.0,0.,24.0,0.,24.0
1979-07-01 07:44:59.280 ,2,1,0.,24.0,0.,24.0,0.,24.0,0.,24.0
1979-07-01 07:45:23.280 ,2,0,0.,24.0,0.,24.0,1.,24.0,0.,24.0
1979-07-01 07:45:47.280 ,1,1,0.,24.0,0.,24.0,0.,24.0,0.,24.0
1979-07-01 07:46:11.280 ,1,0,0.,24.0,0.,24.0,0.,24.0,0.,24.0
1979-07-01 07:46:35.280 ,0,1,0.,24.0,0.,24.0,0.,24.0,0.,24.0
1979-07-01 07:46:59.280 ,0,0,1.,24.0,0.,24.0,0.,24.0,0.,24.0
1979-07-01 07:47:23.280 ,0,1,0.,24.0,0.,24.0,0.,24.0,0.,24.0
1979-07-01 07:47:47.280 ,0,0,1.,24.0,0.,24.0,0.,24.0,0.,24.0
1979-07-01 07:48:11.280 ,1,1,0.,24.0,0.,24.0,0.,24.0,0.,24.0
1979-07-01 07:48:35.280 ,1,0,0.,24.0,0.,24.0,1.,24.0,0.,24.0
1979-07-01 07:48:59.280 ,2,1,0.,24.0,1.,24.0,1.,24.0,0.,24.0
1979-07-01 07:49:23.280 ,2,0,0.,24.0,0.,24.0,0.,24.0,0.,24.0
1979-07-01 07:49:47.280 ,3,1,0.,24.0,1.,24.0,0.,24.0,0.,24.0
1979-07-01 07:50:11.280 ,3,0,0.,24.0,0.,24.0,1.,24.0,0.,24.0
1979-07-01 07:50:35.280 ,4,1,0.,24.0,0.,24.0,0.,24.0,0.,24.0
1979-07-01 07:50:59.280 ,4,0,0.,24.0,0.,24.0,0.,24.0,0.,24.0
1979-07-01 07:51:23.280 ,5,1,0.,24.0,0.,24.0,0.,24.0,0.,24.0
1979-07-01 07:51:47.280 ,5,0,1.,24.0,0.,24.0,1.,24.0,0.,24.0
1979-07-01 07:52:11.280 ,6,1,0.,24.0,0.,24.0,0.,24.0,0.,24.0
1979-07-01 07:52:35.280 ,6,0,0.,24.0,0.,24.0,0.,24.0,0.,24.0
1979-07-01 07:52:59.280 ,7,1,7.,24.0,0.,24.0,0.,24.0,0.,24.0
1979-07-01 07:53:23.280 ,7,0,37.,24.0,0.,24.0,0.,24.0,0.,24.0
1979-07-01 07:53:47.280 ,7,1,30.,24.0,0.,24.0,0.,24.0,0.,24.0
1979-07-01 07:54:11.280 ,7,0,30.,24.0,0.,24.0,0.,24.0,0.,24.0
1979-07-01 07:54:35.280 ,6,1,25.,24.0,0.,24.0,0.,24.0,0.,24.0
1979-07-01 07:54:59.280 ,6,0,1.,24.0,0.,24.0,0.,24.0,0.,24.0
1979-07-01 07:55:23.280 ,5,1,0.,24.0,1.,24.0,0.,24.0,0.,24.0
1979-07-01 07:55:47.280 ,5,0,0.,24.0,0.,24.0,0.,24.0,0.,24.0
1979-07-01 07:56:11.280 ,4,1,0.,24.0,0.,24.0,0.,24.0,0.,24.0
1979-07-01 07:56:35.280 ,4,0,0.,24.0,0.,24.0,0.,24.0,0.,24.0
1979-07-01 07:56:59.280 ,3,1,0.,24.0,0.,24.0,0.,24.0,0.,24.0
1979-07-01 07:57:23.280 ,3,0,0.,24.0,0.,24.0,0.,24.0,0.,24.0
1979-07-01 07:57:47.280 ,2,1,0.,24.0,0.,24.0,0.,24.0,0.,24.0
1979-07-01 07:58:11.280 ,2,0,0.,24.0,0.,24.0,0.,24.0,0.,24.0
1979-07-01 07:58:35.280 ,1,1,0.,24.0,0.,24.0,1.,24.0,0.,24.0
1979-07-01 07:58:59.280 ,1,0,0.,24.0,0.,24.0,0.,24.0,0.,24.0
1979-07-01 07:59:23.280 ,0,1,0.,24.0,0.,24.0,0.,24.0,0.,24.0
1979-07-01 07:59:47.280 ,0,0,0.,24.0,0.,24.0,0.,24.0,0.,24.0
1979-07-01 08:00:11.280 ,0,1,1.,24.0,0.,24.0,1.,24.0,0.,24.0
1979-07-01 08:00:35.280 ,0,0,1.,24.0,0.,24.0,0.,24.0,0.,24.0
1979-07-01 08:00:59.280 ,1,1,0.,24.0,0.,24.0,0.,24.0,0.,24.0
1979-07-01 08:01:23.280 ,1,0,0.,24.0,1.,24.0,0.,24.0,0.,24.0
1979-07-01 08:01:47.280 ,2,1,0.,24.0,0.,24.0,0.,24.0,0.,24.0
1979-07-01 08:02:11.270 ,2,0,1.,24.0,0.,24.0,0.,24.0,0.,24.0
1979-07-01 08:02:35.280 ,3,1,1.,24.0,0.,24.0,0.,24.0,0.,24.0
1979-07-01 08:02:59.280 ,3,0,1.,24.0,0.,24.0,0.,24.0,0.,24.0
1979-07-01 08:03:23.280 ,4,1,0.,24.0,0.,24.0,0.,24.0,0.,24.0
1979-07-01 08:03:47.280 ,4,0,0.,24.0,0.,24.0,1.,24.0,0.,24.0
1979-07-01 08:04:11.280 ,5,1,0.,24.0,0.,24.0,0.,24.0,0.,24.0
1979-07-01 08:04:35.280 ,5,0,0.,24.0,0.,24.0,0.,24.0,0.,24.0
1979-07-01 08:04:59.280 ,6,1,0.,24.0,0.,24.0,0.,24.0,0.,24.0
1979-07-01 08:05:23.280 ,6,0,0.,24.0,0.,24.0,0.,24.0,0.,24.0
1979-07-01 08:05:47.280 ,7,1,2.,24.0,0.,24.0,2.,24.0,0.,24.0
1979-07-01 08:06:11.270 ,7,0,22.,24.0,0.,24.0,0.,24.0,0.,24.0
1979-07-01 08:06:35.280 ,7,1,29.,24.0,0.,24.0,0.,24.0,0.,24.0
1979-07-01 08:06:59.280 ,7,0,25.,24.0,0.,24.0,0.,24.0,0.,24.0
1979-07-01 08:07:23.280 ,6,1,23.,24.0,0.,24.0,0.,24.0,0.,24.0
1979-07-01 08:07:47.280 ,6,0,0.,24.0,0.,24.0,0.,24.0,0.,24.0
1979-07-01 08:08:11.270 ,5,1,0.,24.0,0.,24.0,1.,24.0,0.,24.0
1979-07-01 08:08:35.280 ,5,0,0.,24.0,0.,24.0,0.,24.0,0.,24.0
1979-07-01 08:08:59.270 ,4,1,1.,24.0,0.,24.0,0.,24.0,0.,24.0
1979-07-01 08:09:23.270 ,4,0,0.,24.0,0.,24.0,1.,24.0,0.,24.0
1979-07-01 08:09:47.270 ,3,1,0.,24.0,0.,24.0,0.,24.0,0.,24.0
1979-07-01 08:10:11.270 ,3,0,0.,24.0,0.,24.0,0.,24.0,0.,24.0
1979-07-01 08:10:35.270 ,2,1,0.,24.0,0.,24.0,0.,24.0,0.,24.0
1979-07-01 08:10:59.270 ,2,0,0.,24.0,0.,24.0,0.,24.0,0.,24.0
1979-07-01 08:11:23.270 ,1,1,0.,24.0,0.,24.0,1.,24.0,0.,24.0
1979-07-01 08:11:47.270 ,1,0,1.,24.0,0.,24.0,1.,24.0,0.,24.0
1979-07-01 08:12:11.270 ,0,1,0.,24.0,0.,24.0,1.,24.0,0.,24.0
1979-07-01 08:12:35.270 ,0,0,0.,24.0,0.,24.0,0.,24.0,0.,24.0
1979-07-01 08:12:59.270 ,0,1,0.,24.0,0.,24.0,0.,24.0,0.,24.0
1979-07-01 08:13:23.270 ,0,0,1.,24.0,0.,24.0,0.,24.0,0.,24.0
1979-07-01 08:13:47.270 ,1,1,0.,24.0,0.,24.0,0.,24.0,0.,24.0
1979-07-01 08:14:11.270 ,1,0,0.,24.0,0.,24.0,0.,24.0,0.,24.0
1979-07-01 08:14:35.270 ,2,1,0.,24.0,0.,24.0,0.,24.0,0.,24.0
1979-07-01 08:14:59.270 ,2,0,0.,24.0,0.,24.0,0.,24.0,0.,24.0
1979-07-01 08:15:23.270 ,3,1,0.,24.0,0.,24.0,0.,24.0,0.,24.0
1979-07-01 08:15:47.270 ,3,0,0.,24.0,0.,24.0,0.,24.0,0.,24.0
1979-07-01 08:16:11.270 ,4,1,0.,24.0,0.,24.0,0.,24.0,0.,24.0
1979-07-01 08:16:35.270 ,4,0,0.,24.0,0.,24.0,0.,24.0,0.,24.0
1979-07-01 08:16:59.270 ,5,1,0.,24.0,0.,24.0,0.,24.0,0.,24.0
1979-07-01 08:17:23.270 ,5,0,2.,24.0,0.,24.0,0.,24.0,0.,24.0
1979-07-01 08:17:47.270 ,6,1,0.,24.0,0.,24.0,0.,24.0,0.,24.0
1979-07-01 08:18:11.270 ,6,0,1.,24.0,1.,24.0,1.,24.0,0.,24.0
1979-07-01 08:18:35.270 ,7,0,4.,24.0,0.,24.0,0.,24.0,0.,24.0
1979-07-01 08:18:59.270 ,7,0,30.,24.0,0.,24.0,0.,24.0,0.,24.0
1979-07-01 08:19:23.270 ,5,1,20.,24.0,0.,24.0,0.,24.0,0.,24.0
1979-07-01 08:19:47.270 ,1,1,0.,24.0,0.,24.0,0.,24.0,0.,24.0
1979-07-01 08:20:11.270 ,2,1,0.,24.0,0.,24.0,0.,24.0,0.,24.0
1979-07-01 08:20:35.270 ,6,1,0.,24.0,0.,24.0,1.,24.0,0.,24.0
1979-07-01 08:20:59.270 ,5,1,15.,24.0,0.,24.0,0.,24.0,0.,24.0
1979-07-01 08:21:23.270 ,1,1,0.,24.0,0.,24.0,0.,24.0,0.,24.0
1979-07-01 08:21:47.270 ,2,1,0.,24.0,0.,24.0,0.,24.0,0.,24.0
1979-07-01 08:22:11.270 ,6,1,1.,24.0,0.,24.0,0.,24.0,0.,24.0
1979-07-01 08:22:35.270 ,5,1,17.,24.0,0.,24.0,0.,24.0,0.,24.0
1979-07-01 08:22:59.270 ,1,1,1.,24.0,1.,24.0,0.,24.0,0.,24.0
1979-07-01 08:23:23.270 ,2,1,0.,24.0,0.,24.0,1.,24.0,0.,24.0
1979-07-01 08:23:47.270 ,6,1,0.,24.0,0.,24.0,0.,24.0,0.,24.0
1979-07-01 08:24:11.270 ,5,1,13.,24.0,0.,24.0,0.,24.0,0.,24.0
1979-07-01 08:24:35.270 ,1,1,0.,24.0,0.,24.0,0.,24.0,0.,24.0
1979-07-01 08:24:59.270 ,2,1,0.,24.0,0.,24.0,1.,24.0,0.,24.0
1979-07-01 08:25:23.270 ,6,1,0.,24.0,1.,24.0,1.,24.0,0.,24.0
1979-07-01 08:25:47.270 ,5,1,22.,24.0,0.,24.0,0.,24.0,0.,24.0
1979-07-01 08:26:11.270 ,1,1,0.,24.0,1.,24.0,0.,24.0,0.,24.0
1979-07-01 08:26:35.270 ,2,1,0.,24.0,0.,24.0,0.,24.0,0.,24.0
1979-07-01 08:26:59.270 ,6,1,0.,24.0,0.,24.0,0.,24.0,0.,24.0
1979-07-01 08:27:23.270 ,5,1,17.,24.0,0.,24.0,0.,24.0,0.,24.0
1979-07-01 08:27:47.270 ,1,1,0.,24.0,0.,24.0,0.,24.0,0.,24.0
1979-07-01 08:28:11.270 ,2,1,1.,24.0,0.,24.0,0.,24.0,0.,24.0
1979-07-01 08:28:35.270 ,6,1,0.,24.0,0.,24.0,0.,24.0,0.,24.0
1979-07-01 08:28:59.270 ,5,1,18.,24.0,0.,24.0,0.,24.0,0.,24.0
1979-07-01 08:29:23.270 ,1,1,0.,24.0,0.,24.0,0.,24.0,0.,24.0
1979-07-01 08:29:47.270 ,0,0,0.,24.0,0.,24.0,0.,24.0,0.,24.0
1979-07-01 08:30:11.270 ,0,0,0.,24.0,0.,24.0,0.,24.0,0.,24.0
1979-07-01 08:30:35.270 ,5,1,11.,24.0,0.,24.0,0.,24.0,0.,24.0
1979-07-01 08:30:59.270 ,5,0,0.,24.0,0.,24.0,0.,24.0,0.,24.0
1979-07-01 08:31:23.270 ,4,1,0.,24.0,0.,24.0,0.,24.0,0.,24.0
1979-07-01 08:31:47.270 ,4,0,0.,24.0,0.,24.0,1.,24.0,0.,24.0
1979-07-01 08:32:11.270 ,3,1,0.,24.0,0.,24.0,0.,24.0,0.,24.0
1979-07-01 08:32:35.270 ,3,0,0.,24.0,0.,24.0,0.,24.0,0.,24.0
1979-07-01 08:32:59.270 ,2,1,0.,24.0,0.,24.0,0.,24.0,0.,24.0
1979-07-01 08:33:23.270 ,2,0,0.,24.0,0.,24.0,0.,24.0,0.,24.0
1979-07-01 08:33:47.270 ,1,1,0.,24.0,0.,24.0,0.,24.0,0.,24.0